Stanton, MN

7:38 AM CDT on August 17, 2017 (GMT -0500)
Stanton

Weather History for KSYN - November, 2012

Change the Weather History Date:

Monday, November 5, 2012

  Actual Average (KLVN) Record (KLVN)
Temperature  
Mean Temperature 42 °F -  
Max Temperature 45 °F 45 °F 71 °F (2001)
Min Temperature 40 °F 28 °F -3 °F (1951)
Degree Days  
Heating Degree Days 22    
Moisture  
Dew Point 35 °F    
Average Humidity 74    
Maximum Humidity 83    
Minimum Humidity 66    
Precipitation  
Precipitation 0.00 in - - ()
Sea Level Pressure  
Sea Level Pressure 30.11 in    
Wind  
Wind Speed 5 mph (SE)    
Max Wind Speed 12 mph    
Max Gust Speed 17 mph    
Visibility 9 miles    
Events Rain    
Averages and records for this station are not official NWS values.
T = Trace of Precipitation, MM = Missing Value Source: NWS Daily Summary

Daily Weather History Graph

Daily Weather History Graph

Search for Another Location

Airport or City:

Trip Planner

Search our weather history database for the weather conditions in past years. The results will help you decide how hot, cold, wet, or windy it might be!

Date:

Astronomy

Nov. 05, 2012 Rise Set
Actual Time 6:55 AM CST 4:55 PM CST
Civil Twilight 6:24 AM CST 5:25 PM CST
Nautical Twilight 5:50 AM CST 6:00 PM CST
Astronomical Twilight 5:16 AM CST 6:34 PM CST
Moon 10:33 PM CST (11/5) 12:15 PM CST (11/5)
Length of Visible Light 11h 01m
Length of Day
9h 59m
Waning Gibbous, 62% of the Moon is Illuminated
Nov 5
Waning Gibbous
Nov 6
Last Quarter
Nov 13
New
Nov 20
First Quarter
Nov 28
Full

Hourly Weather History & Observations

Time (CST) Temp. Windchill Dew Point Humidity Pressure Visibility Wind Dir Wind Speed Gust Speed Precip Events Conditions
12:12 AM 43.9 °F 40.5 °F 35.4 °F 72% 30.13 in 10.0 mi ESE 5.8 mph - N/A   Overcast
12:32 AM 43.7 °F 41.1 °F 35.2 °F 72% 30.13 in 10.0 mi East 4.6 mph - N/A   Overcast
12:52 AM 43.3 °F 39.9 °F 35.4 °F 74% 30.13 in 10.0 mi East 5.8 mph - N/A   Overcast
1:12 AM 43.2 °F 41.5 °F 35.2 °F 74% 30.14 in 10.0 mi East 3.5 mph - N/A   Overcast
1:32 AM 43.0 °F 41.3 °F 35.8 °F 76% 30.14 in 10.0 mi East 3.5 mph - N/A Rain Light Rain
1:52 AM 42.6 °F 40.9 °F 36.0 °F 77% 30.14 in 7.0 mi East 3.5 mph - N/A   Light Drizzle
2:12 AM 42.3 °F 39.4 °F 36.3 °F 79% 30.15 in 7.0 mi East 4.6 mph - N/A   Light Drizzle
2:32 AM 41.9 °F 39.0 °F 36.5 °F 81% 30.14 in 7.0 mi East 4.6 mph - N/A   Light Drizzle
2:52 AM 42.1 °F 39.2 °F 36.5 °F 81% 30.14 in 7.0 mi East 4.6 mph - N/A   Overcast
3:12 AM 42.1 °F 39.2 °F 36.1 °F 79% 30.14 in 7.0 mi East 4.6 mph - N/A   Light Drizzle
3:32 AM 42.1 °F - 35.8 °F 78% 30.14 in 7.0 mi Calm Calm - N/A   Overcast
3:53 AM 42.1 °F - 35.8 °F 78% 30.14 in 7.0 mi Calm Calm - N/A   Overcast
4:12 AM 41.2 °F 39.2 °F 36.3 °F 83% 30.14 in 7.0 mi East 3.5 mph - N/A   Overcast
4:32 AM 41.0 °F 38.0 °F 36.3 °F 83% 30.15 in 7.0 mi ENE 4.6 mph - N/A   Overcast
4:53 AM 40.8 °F 38.8 °F 36.1 °F 83% 30.15 in 7.0 mi ENE 3.5 mph - N/A   Overcast
5:12 AM 41.0 °F 38.0 °F 36.0 °F 82% 30.15 in 7.0 mi ENE 4.6 mph - N/A   Overcast
5:32 AM 41.0 °F 37.1 °F 35.8 °F 82% 30.15 in 7.0 mi East 5.8 mph - N/A   Overcast
5:52 AM 41.0 °F 37.1 °F 34.9 °F 79% 30.15 in 10.0 mi East 5.8 mph - N/A   Overcast
6:12 AM 41.0 °F 38.0 °F 34.9 °F 79% 30.15 in 10.0 mi East 4.6 mph - N/A   Overcast
6:32 AM 41.0 °F 38.0 °F 34.7 °F 78% 30.15 in 10.0 mi ENE 4.6 mph - N/A   Overcast
6:52 AM 41.0 °F 38.0 °F 34.3 °F 77% 30.16 in 10.0 mi East 4.6 mph - N/A   Overcast
7:12 AM 40.3 °F 36.3 °F 34.3 °F 79% 30.16 in 10.0 mi East 5.8 mph - N/A   Overcast
7:32 AM 40.5 °F 36.5 °F 33.8 °F 77% 30.16 in 10.0 mi ENE 5.8 mph - N/A   Overcast
7:52 AM 40.5 °F 36.5 °F 33.3 °F 75% 30.17 in 10.0 mi East 5.8 mph - N/A   Overcast
8:12 AM 40.5 °F 37.3 °F 33.3 °F 75% 30.17 in 10.0 mi ENE 4.6 mph - N/A   Overcast
8:32 AM 40.5 °F 37.3 °F 32.7 °F 74% 30.18 in 10.0 mi East 4.6 mph - N/A   Overcast
8:52 AM 40.6 °F 37.5 °F 32.7 °F 73% 30.17 in 10.0 mi East 4.6 mph - N/A   Overcast
9:12 AM 41.0 °F 38.0 °F 32.4 °F 71% 30.17 in 10.0 mi East 4.6 mph - N/A   Overcast
9:32 AM 41.2 °F 39.2 °F 32.2 °F 70% 30.18 in 10.0 mi SE 3.5 mph - N/A   Overcast
9:52 AM 41.5 °F - 32.2 °F 69% 30.18 in 10.0 mi Calm Calm - N/A   Overcast
10:12 AM 41.5 °F 38.6 °F 32.2 °F 69% 30.18 in 10.0 mi ESE 4.6 mph - N/A   Overcast
10:32 AM 41.9 °F 40.0 °F 32.4 °F 69% 30.18 in 10.0 mi ESE 3.5 mph - N/A   Overcast
10:52 AM 42.1 °F 39.2 °F 32.5 °F 69% 30.18 in 10.0 mi ESE 4.6 mph - N/A   Overcast
11:12 AM 42.3 °F 38.6 °F 32.9 °F 69% 30.18 in 10.0 mi ESE 5.8 mph - N/A   Overcast
11:32 AM 42.4 °F 38.8 °F 32.5 °F 68% 30.18 in 10.0 mi SE 5.8 mph - N/A   Overcast
11:52 AM 43.0 °F 38.8 °F 33.1 °F 68% 30.16 in 10.0 mi SE 6.9 mph - N/A   Overcast
12:12 PM 42.8 °F 39.3 °F 32.7 °F 68% 30.16 in 10.0 mi South 5.8 mph - N/A   Overcast
12:32 PM 43.5 °F 40.9 °F 33.4 °F 68% 30.15 in 10.0 mi SSE 4.6 mph - N/A   Overcast
12:52 PM 43.5 °F 40.9 °F 33.3 °F 67% 30.14 in 10.0 mi SSE 4.6 mph - N/A   Overcast
1:12 PM 43.9 °F 39.9 °F 33.4 °F 67% 30.13 in 10.0 mi SSE 6.9 mph - N/A   Overcast
1:32 PM 44.4 °F 42.0 °F 33.8 °F 66% 30.13 in 10.0 mi South 4.6 mph - N/A   Overcast
1:52 PM 44.8 °F 43.3 °F 34.0 °F 66% 30.13 in 10.0 mi SSE 3.5 mph - N/A   Overcast
2:12 PM 45.3 °F - 34.7 °F 66% 30.12 in 10.0 mi Calm Calm - N/A   Overcast
2:32 PM 45.1 °F - 34.7 °F 67% 30.12 in 10.0 mi Calm Calm - N/A   Overcast
2:52 PM 45.1 °F 43.7 °F 35.2 °F 68% 30.11 in 10.0 mi South 3.5 mph - N/A   Overcast
3:12 PM 45.0 °F 43.5 °F 35.6 °F 70% 30.11 in 10.0 mi SSE 3.5 mph - N/A   Overcast
3:32 PM 45.0 °F 42.6 °F 35.1 °F 68% 30.10 in 7.0 mi SSE 4.6 mph - N/A   Overcast
3:52 PM 44.8 °F 43.3 °F 35.4 °F 70% 30.10 in 7.0 mi SSE 3.5 mph - N/A   Overcast
4:12 PM 44.6 °F 43.1 °F 35.6 °F 71% 30.10 in 10.0 mi SSE 3.5 mph - N/A   Overcast
4:32 PM 44.6 °F 42.2 °F 36.0 °F 72% 30.10 in 7.0 mi South 4.6 mph - N/A   Overcast
4:52 PM 44.2 °F 42.7 °F 36.1 °F 73% 30.10 in 7.0 mi South 3.5 mph - N/A   Overcast
5:12 PM 43.9 °F 41.3 °F 36.5 °F 75% 30.09 in 7.0 mi South 4.6 mph - N/A   Overcast
5:32 PM 43.7 °F 41.1 °F 36.1 °F 75% 30.08 in 7.0 mi South 4.6 mph - N/A   Overcast
5:52 PM 43.7 °F 40.3 °F 35.8 °F 74% 30.07 in 7.0 mi South 5.8 mph - N/A   Overcast
6:13 PM 43.5 °F 40.9 °F 35.8 °F 74% 30.08 in 7.0 mi South 4.6 mph - N/A   Overcast
6:32 PM 43.0 °F 39.5 °F 36.0 °F 76% 30.07 in 7.0 mi SW 5.8 mph - N/A   Overcast
6:52 PM 43.2 °F 40.5 °F 36.0 °F 76% 30.06 in 7.0 mi South 4.6 mph - N/A   Overcast
7:13 PM 42.8 °F 40.1 °F 36.0 °F 77% 30.06 in 7.0 mi South 4.6 mph - N/A   Overcast
7:32 PM 42.8 °F 40.1 °F 35.8 °F 76% 30.05 in 7.0 mi South 4.6 mph - N/A   Overcast
7:52 PM 42.6 °F 40.9 °F 35.8 °F 77% 30.05 in 7.0 mi SSW 3.5 mph - N/A   Overcast
8:13 PM 42.3 °F 39.4 °F 36.0 °F 78% 30.04 in 7.0 mi SSW 4.6 mph - N/A   Overcast
8:32 PM 42.4 °F 40.7 °F 35.8 °F 77% 30.04 in 7.0 mi South 3.5 mph - N/A   Overcast
8:52 PM 42.8 °F 39.3 °F 35.2 °F 75% 30.03 in 7.0 mi South 5.8 mph - N/A   Overcast
9:12 PM 42.8 °F 39.3 °F 35.1 °F 74% 30.03 in 7.0 mi South 5.8 mph - N/A   Overcast
9:32 PM 42.8 °F 38.0 °F 34.7 °F 73% 30.02 in 10.0 mi South 8.1 mph - N/A   Overcast
9:52 PM 43.0 °F 37.7 °F 34.7 °F 73% 30.01 in 10.0 mi South 9.2 mph - N/A   Overcast
10:12 PM 43.0 °F 38.2 °F 34.7 °F 73% 30.00 in 10.0 mi South 8.1 mph - N/A   Overcast
10:32 PM 42.8 °F 37.5 °F 34.7 °F 73% 29.98 in 7.0 mi South 9.2 mph - N/A   Overcast
10:52 PM 42.8 °F 37.5 °F 34.7 °F 73% 29.97 in 7.0 mi South 9.2 mph - N/A   Overcast
11:13 PM 43.0 °F 37.7 °F 34.7 °F 73% 29.95 in 7.0 mi South 9.2 mph - N/A   Overcast
11:32 PM 42.8 °F 36.6 °F 35.1 °F 74% 29.95 in 7.0 mi South 11.5 mph 17.3 mph N/A   Overcast
11:52 PM 42.8 °F 36.6 °F 35.1 °F 74% 29.94 in 7.0 mi SSW 11.5 mph - N/A   Overcast